HULIANWANG DIGUI-76

导读

HULIANWANG DIGUI-76是中国于2025年8月25日发射的低轨卫星,属于“低轨互联网星座”体系,主要服务于全球卫星互联网建设,将为全球用户提供高速、稳定的宽带网络接入服务,补齐地面网络覆盖盲区,推动空天地一体化网络建设,助力全球数字互联互通,拓展卫星通信应用场景。

Basic Information
目录编号:
65308
目录名称:
HULIANWANG DIGUI-76
国际标识:
2025-187D
轨道中心:
EARTH
卫星名称:
HULIANWANG DIGUI-76
卫星全名:
HULIANWANG DIGUI-76
卫星状态:
在轨 (已飞行291 天)
发射日期:
2025-08-25 UTC
国别 :
中国 (CN)
星等 :
--
Orbit Information
数据来源 国际轨道数据 AOE轨道数据
星历时间 2026-06-12T14:37:16+0800
14小时前
查看轨道信息
2026-06-12T07:00:00+0800
22小时前
查看轨道信息
半长轴 7527.451km 7527.448km
偏心率 0.000036 0.0000094
轨道倾角 50.000° 49.999°
近地点辐角 174.861° 161.007°
升交点赤经 223.619° 224.758°
平近点角 185.227° 118.487°
近地点 1149.043km 1149.24km
远地点 1149.585km 1149.382km
周期 108.326分钟 108.326分钟
每日圈数 13.293241 13.293249
Detailed Information
使用方式:
暂无
2D Orbit Map
3D Orbit Map
Orbit Altitude Analysis Chart
Orbit Inclination Analysis Chart
Orbit Comprehensive Analysis Chart
View Comprehensive Chart